Preview of NWS' New Version of Forecast
This preview is not operational and should not be used for support decisions.

Regional Weather Roundup (RWR)

Issued by Gray - Portland, ME (GYX)

                            
911 
ASUS41 KGYX 210510
RWRGYX
WEATHER ROUNDUP FOR MAINE AND NEW HAMPSHIRE
NATIONAL WEATHER SERVICE GRAY ME
1200 AM EST WED FEB 21 2018

MEZ002-005-006-010-012-015-018-020-021-024-026-027-029-210600-
MAINE
  
CITY           SKY/WX    TMP DP  RH WIND       PRES   REMARKS
PORTLAND       CLOUDY    38  38 100 NW3       30.28S FOG              
SANFORD        FOG       36  36 100 CALM      30.28S VSB 1/2          
BAR HARBOR     LGT RAIN  38  38 100 NE3       30.28F VSB 1/2          
WISCASSET      FOG       35  35 100 CALM      30.29R VSB 1/2          
ROCKLAND       LGT RAIN  39  38  96 NE5       30.27S VSB 1/2          
FRYEBURG       CLOUDY    38  38 100 CALM      30.25F                  
LEWISTONAUBURN FOG       36  36 100 N3        30.28R VSB 1/4          
AUGUSTA        FOG       36  36 100 CALM      30.27R VSB 1/4          
WATERVILLE     FOG       36  36 100 CALM      30.22S VSB 1/2          
BANGOR         FOG       37  36  96 S3        30.27S VSB 1/2          
GREENVILLE       N/A     34  34 100 SE9       30.18S                  
MILLINOCKET    LGT RAIN  35  35 100 CALM      30.26F VSB 1            
HOULTON        FRZ RAIN  31  30  96 VRB3      30.26S FOG              
PRESQUE ISLE   FLURRIES  30  28  92 S8        30.26S                  
FRENCHVILLE    FRZ RAIN  28  27  96 SE13      30.19F FOG     WCI  17  
CARIBOU        CLOUDY    31  28  89 SE7       30.23F FOG              
$$

NHZ002-005-008-009-011-012-014-210600-
NEW HAMPSHIRE
  
CITY           SKY/WX    TMP DP  RH WIND       PRES   REMARKS
PORTSMOUTH     FOG       39  39  99 CALM      30.27R VSB 1/8          
ROCHESTER      FOG       39  39 100 S3        30.26F VSB 1/4          
NASHUA         FOG       40  40 100 CALM      30.28R VSB 1/4          
MANCHESTER     MOCLDY    41  39  93 CALM      30.26S FOG              
CONCORD        FOG       42  40  92 CALM      30.26F VSB 1/4          
LACONIA        CLOUDY    36  34  92 CALM      30.26F                  
PLYMOUTH       FAIR      34  32  93 CALM      30.25F                  
BERLIN         CLOUDY    36  36 100 CALM      30.19F FOG              
WHITEFIELD     CLOUDY    36  36 100 CALM      30.19S FOG              
JAFFREY        FAIR      40  32  73 S6        30.27S FOG              
KEENE          FAIR      36  34  93 CALM      30.27S FOG              
LEBANON        FAIR      37  36  96 CALM      30.22R FOG              
MT WASHINGTON  FOG       43  43 100 W75G83      N/A  VSB 0            
$$

VTZ005-007-008-210600-
VERMONT
  
CITY           SKY/WX    TMP DP  RH WIND       PRES   REMARKS
ST JOHNSBURY     N/A     38  38 100 MISG      30.17S                  
MONTPELIER     CLOUDY    53  50  89 VRB7      30.20F                  
BURLINGTON     CLOUDY    58  50  75 S12       30.13F                  
$$

MAZ007-012-024-CTZ003-RIZ002-NYZ038-NYZ072-210600-
SOUTHERN NEW ENGLAND AND NY
  
CITY           SKY/WX    TMP DP  RH WIND       PRES   REMARKS
BOSTON         FAIR      42  40  92 E8        30.28R                  
WORCESTER      FAIR      58  32  37 SW15      30.28S                  
NANTUCKET      FOG       46  46 100 SW15      30.36S VSB 1/4          
PROVIDENCE     FAIR      54  52  93 W9        30.31S                  
HARTFORD       FAIR      52  50  93 S9        30.29R                  
ALBANY         MOCLDY    57  50  77 S6        30.22S                  
NEW YORK CITY  MOCLDY    53  48  83 S9        30.33R                  
$$

ANZ081-ANZ082-ANZ150-NHZ014-MEZ023>029-210600-
COASTAL MARINE OBSERVATIONS
  
STATION/POSITION TIME  TEMP    WIND        PRES    WAVE
                       AIR SEA DIR/SP/G            HT/PER
                 (UTC) (F)     (DEG/KT/KT) (MB)    (FT/S)
MOUNT DESERT ROC 0500   42      90/  7/  8 1024.5F
MATINICUS ROCK   0400   41      70/ 12/ 12 1024.2R
ISLE OF SHOALS   0400   40      50/  5/  6 1024.9F
JEFFREYS LEDGE   0436      42                N/A     4/12
GEORGES BANK BUO 0350   48 61              1025.5   10/14
$$

.............KEY..............
   WCI - WIND CHILL
   TC  - TEMPERATURE IN CELSIUS
   VSB - VISIBILITY IN MILES
   HX  - HEAT INDEX
   FAIR- INDICATES FEW OR NO CLOUDS BELOW 12,000 FT, WITH NO 
         SIGNIFICANT WEATHER AND/OR OBSTRUCTIONS TO VISIBILITY.